Wind_Speed
5 5 6 6 6 7 7 6 5 4 5 7 7 5 3 3 1 2 0 1 2 3 1 1 1 2 1 2 1 3 8 5 4 1 1 3 7 14 17 19 24 26 24 22 24 26 23 25 25 25 26 26 26 27 27 27 27 27 27 27 27 27 24 22 20 21 20 19 19 18 18 17 16 16 16 16 17 19 19 17 16 16 15 14 14 14 14 14 15 14 14 14 14 14 13 13 13
5 5 7 6 7 7 4 4 5 4 7 7 7 6 5 7 5 3 4 4 4 4 2 3 4 3 0 3 1 1 5 8 8 5 4 7 11 14 18 21 25 26 24 23 24 24 23 24 26 27 27 27 27 28 28 28 29 29 27 27 26 24 22 21 20 21 20 19 19 18 18 17 16 15 15 16 17 18 18 17 16 15 15 15 14 14 14 14 15 15 14 14 14 14 13 13 14
6 6 7 8 7 7 2 4 6 5 7 7 7 5 5 5 6 4 6 5 6 4 2 4 5 3 1 4 2 1 4 6 7 7 6 11 12 13 20 23 25 25 24 23 23 23 22 24 27 28 27 27 27 28 28 29 29 28 27 25 24 23 21 21 21 21 20 19 18 18 18 16 15 15 15 15 16 17 17 16 16 15 15 15 14 14 14 14 15 15 15 14 14 14 14 14 14
7 7 8 9 6 5 4 5 6 6 6 7 5 6 6 4 4 4 4 3 2 3 3 3 4 2 3 2 2 2 5 5 6 6 6 9 12 17 23 24 23 23 23 23 22 21 22 25 27 27 27 27 27 27 28 28 28 27 25 24 23 22 21 21 22 21 20 19 18 18 17 16 16 15 15 16 16 16 15 15 14 14 15 15 14 14 14 14 14 14 15 14 15 15 14 15 14
6 7 8 8 4 3 4 5 5 7 6 5 2 6 5 2 3 2 2 1 3 5 5 4 3 3 1 5 2 1 6 5 6 6 7 9 13 20 23 24 22 21 22 23 22 21 24 27 27 27 27 27 26 26 26 27 26 25 25 24 24 23 22 22 22 21 20 19 18 17 16 15 15 15 15 16 16 16 15 14 14 13 15 15 15 14 14 13 13 14 14 14 14 14 14 15 14
7 8 8 8 3 1 4 5 6 8 6 5 1 6 5 3 2 2 1 2 4 6 7 6 3 4 4 5 3 4 4 1 5 6 7 12 16 21 22 22 21 21 21 22 22 21 26 29 28 28 27 27 26 26 25 25 25 25 25 25 24 24 23 23 22 21 19 19 18 16 15 15 14 13 15 17 17 16 16 15 14 13 14 15 15 15 14 13 13 13 14 13 13 13 14 14 13
9 8 6 7 3 2 7 7 7 8 4 3 2 3 2 4 3 3 3 3 4 6 7 7 5 5 5 5 4 6 4 2 2 7 10 15 18 21 22 21 20 20 20 21 21 22 27 29 29 29 28 28 27 27 26 25 25 25 25 25 25 25 23 22 20 19 18 18 17 16 15 14 14 13 14 18 17 16 15 14 13 12 13 14 14 14 13 13 12 13 13 13 13 13 13 13 12
9 6 4 6 4 4 7 7 8 6 2 1 3 3 5 6 5 6 4 4 3 5 8 8 8 5 5 5 4 6 4 3 4 10 14 17 19 20 20 20 20 20 20 20 21 24 26 28 29 28 29 29 28 27 27 26 26 25 25 26 26 24 22 21 19 18 18 17 17 16 15 14 14 13 13 14 15 16 14 11 12 12 12 12 12 13 13 12 12 13 12 12 13 12 11 11 10
10 6 3 6 5 5 7 7 7 6 2 1 2 2 4 5 6 7 6 6 3 4 8 9 9 5 7 6 5 7 4 5 10 14 16 18 18 19 19 19 20 20 19 20 23 25 25 27 28 28 28 28 28 27 27 26 26 26 25 25 25 23 22 21 19 18 18 17 17 16 16 15 14 13 12 10 12 15 12 10 11 11 11 11 10 11 11 10 10 11 11 11 11 10 9 9 8
8 5 4 6 5 6 7 7 6 3 2 2 2 3 4 5 6 7 8 7 5 6 7 7 7 6 9 8 6 6 5 8 13 16 16 17 18 18 18 18 19 19 19 20 23 25 25 26 26 26 27 27 27 26 26 26 25 25 24 24 23 23 22 21 20 19 19 18 17 16 16 14 13 12 11 10 11 13 10 9 10 10 11 10 9 8 9 9 9 9 9 9 9 9 8 7 6
6 4 4 6 6 7 7 6 6 3 2 2 1 2 5 3 5 6 7 6 6 8 8 7 7 8 10 7 5 5 8 11 13 17 17 17 17 17 17 18 18 18 19 21 22 24 25 25 25 26 26 26 26 26 26 25 25 25 24 24 23 23 22 22 21 20 19 18 17 16 15 14 13 12 11 10 11 11 9 9 10 10 10 9 7 6 7 8 9 9 9 8 8 9 7 7 6
6 6 5 6 7 6 6 5 4 2 3 4 1 4 5 3 3 5 7 7 8 9 10 8 7 9 9 7 5 7 9 10 13 17 18 16 17 16 17 17 17 18 19 21 21 23 25 25 26 26 26 26 26 26 26 25 25 25 24 24 23 23 22 22 21 19 18 18 17 16 15 14 13 12 11 10 11 10 9 10 11 10 9 7 6 6 7 8 8 9 9 7 8 9 8 8 6
6 6 7 7 6 5 5 5 2 2 4 4 3 6 5 3 2 4 6 8 9 11 10 7 8 8 6 7 6 7 9 11 14 17 18 17 16 16 16 17 17 17 18 20 21 22 23 24 25 25 25 26 26 26 25 25 25 25 25 24 23 22 22 21 19 18 17 17 16 16 15 14 13 13 12 11 11 10 9 9 10 9 7 6 6 7 8 8 8 8 8 7 8 9 9 8 6
6 4 6 6 5 6 5 5 3 5 4 6 4 6 4 3 3 2 5 10 9 8 8 5 7 7 5 7 5 6 9 12 15 17 18 16 17 16 16 17 17 17 17 18 20 21 21 23 23 24 24 23 24 25 24 25 24 24 24 23 22 21 20 19 18 17 16 16 16 16 15 14 13 13 13 12 11 10 9 9 9 8 7 6 7 8 8 9 8 7 6 6 7 8 8 8 7
6 3 6 6 5 6 6 6 4 6 4 8 4 6 2 3 2 2 3 7 7 5 6 5 2 2 5 6 5 9 13 15 16 18 18 16 17 17 16 17 16 16 16 17 19 20 20 21 21 22 22 21 23 23 22 24 23 23 22 21 21 20 19 18 17 16 15 16 16 16 15 14 13 13 13 12 11 10 9 9 9 8 7 7 8 9 9 10 9 7 7 6 7 7 7 8 8
5 4 5 6 7 7 6 6 4 6 4 8 3 5 1 4 1 1 2 1 6 6 4 5 1 2 3 3 6 15 18 17 18 19 18 17 17 16 17 16 16 16 15 17 19 21 20 20 20 21 20 20 22 22 20 21 22 21 21 20 19 19 17 17 17 17 16 16 16 16 15 14 13 12 12 11 11 10 10 9 9 9 9 8 8 9 10 10 9 8 7 7 7 6 7 9 10
4 5 7 6 8 7 5 7 4 2 6 7 4 5 3 4 2 1 2 2 8 8 3 4 2 2 0 3 12 20 20 19 20 21 20 18 17 16 16 15 16 16 16 17 17 19 19 18 19 19 19 19 20 21 19 19 21 20 19 18 18 18 16 16 17 17 17 16 16 16 14 13 12 11 11 11 11 11 11 11 11 10 9 9 9 8 9 9 8 7 7 7 7 6 7 8 9
5 6 7 7 8 6 4 6 2 1 5 5 4 5 5 3 4 3 5 5 8 7 4 5 4 3 5 9 17 21 20 20 21 22 20 19 17 16 16 16 16 16 16 16 14 16 16 16 17 17 17 17 17 18 17 17 19 18 17 17 17 17 17 16 17 16 16 15 15 14 12 11 10 10 10 10 10 10 11 12 11 10 9 9 9 9 8 8 7 6 6 6 6 6 7 6 6
7 6 7 8 7 2 1 2 1 0 2 4 4 4 6 3 4 4 6 8 9 8 7 7 6 7 8 12 17 20 20 20 21 21 20 19 18 18 17 17 17 16 16 14 14 14 14 14 15 15 15 15 14 13 14 16 16 14 14 16 15 16 16 15 16 16 15 14 13 12 11 10 9 9 10 10 10 11 11 11 11 10 9 8 8 8 8 8 8 7 6 6 6 5 5 4 5
8 7 7 8 5 2 2 2 1 1 3 3 2 3 4 4 1 4 5 8 10 9 9 8 8 9 10 13 16 19 19 19 19 19 19 18 18 19 18 18 18 17 15 14 14 13 13 13 13 13 13 13 12 10 10 13 13 9 10 13 14 15 15 13 13 13 14 13 12 11 10 10 9 9 10 12 11 10 10 10 10 9 9 8 8 8 8 8 7 7 7 7 5 3 2 3 4
6 7 9 5 3 5 5 4 2 1 3 3 3 2 0 3 2 3 5 9 10 8 8 6 7 11 13 14 15 18 18 17 18 18 18 18 18 18 17 18 17 17 15 13 13 13 12 12 11 11 11 11 10 8 7 10 11 7 8 10 12 13 11 10 10 10 11 12 11 9 9 9 9 9 10 11 10 9 9 9 9 9 9 9 8 7 7 7 7 7 7 6 4 3 3 2 3
5 9 11 4 2 6 4 4 2 1 2 3 3 3 0 2 3 3 6 8 5 3 3 1 3 10 15 15 15 17 16 16 17 16 17 17 17 17 16 16 16 15 14 13 13 13 11 11 10 10 10 9 8 9 9 9 9 8 7 8 11 13 11 11 10 8 8 9 10 9 9 9 8 8 9 9 8 8 9 9 9 9 9 9 8 7 6 7 7 7 7 6 5 4 4 4 4
7 9 10 6 6 6 3 2 2 2 4 4 3 3 2 4 4 2 7 5 4 4 3 1 2 8 13 14 15 16 15 15 15 16 16 16 17 17 15 14 14 14 13 12 12 11 11 10 10 9 9 9 10 10 10 9 9 8 6 8 11 12 12 12 10 6 6 7 9 10 9 10 8 6 8 8 7 7 7 7 7 8 8 8 8 7 7 7 7 7 7 6 6 5 5 5 5
10 8 8 9 8 8 7 5 4 4 6 5 3 4 5 6 3 1 7 5 3 4 4 2 4 8 12 13 13 14 14 14 14 15 15 15 16 13 13 13 14 15 13 11 11 10 10 10 10 8 8 12 14 12 14 12 11 10 9 9 9 10 10 9 7 5 6 7 8 8 9 10 8 6 7 7 7 7 6 5 5 6 7 7 8 7 7 8 7 7 7 7 6 6 5 5 5
13 11 7 7 7 9 9 8 7 7 7 5 4 7 7 5 4 4 7 4 1 2 2 4 7 10 11 11 12 12 12 13 13 14 13 13 13 12 12 13 14 14 13 12 11 10 10 9 8 7 8 10 11 12 14 13 11 10 8 7 5 5 5 4 5 6 7 7 7 8 10 10 9 8 7 6 6 5 5 6 6 6 6 6 7 7 7 7 7 7 7 8 7 7 6 6 5
12 14 8 7 8 9 9 9 10 9 6 4 7 10 6 3 4 7 7 4 3 2 4 7 10 11 11 10 11 12 12 13 13 13 12 11 11 12 13 14 14 12 14 14 11 12 13 8 8 9 9 10 9 10 12 10 10 8 6 5 3 3 1 1 6 8 5 6 7 9 8 8 9 7 6 5 4 4 5 6 7 7 6 6 7 7 7 7 6 7 7 7 8 8 7 6 6
6 13 10 8 10 8 9 10 10 8 6 7 10 9 5 4 5 7 6 6 4 6 7 9 10 10 10 10 11 12 11 11 12 12 11 10 12 15 15 13 11 10 12 13 12 13 13 9 9 10 10 10 10 10 10 8 8 8 7 5 6 5 2 4 9 6 3 5 7 6 5 5 6 5 4 4 4 5 5 7 8 8 8 8 8 7 7 6 6 6 6 7 8 8 7 7 6
2 8 8 10 11 9 10 11 10 8 7 9 10 7 5 6 8 7 7 8 7 7 9 9 9 9 10 9 10 11 10 11 12 12 13 13 15 16 14 11 12 14 13 11 11 12 11 10 10 9 9 10 9 10 10 8 7 7 6 6 7 5 4 7 11 5 4 7 6 5 5 5 4 5 6 5 5 6 6 8 9 9 9 9 8 7 6 6 6 6 6 6 7 8 8 7 6
5 6 8 10 11 11 13 12 10 8 7 7 7 7 7 10 11 6 8 8 8 8 9 9 8 8 9 9 10 10 9 12 12 13 15 13 12 13 13 12 16 20 15 12 14 15 14 14 13 10 9 10 9 9 10 8 7 7 5 6 6 5 6 10 9 5 7 9 6 5 5 5 7 9 9 6 5 6 7 8 7 8 8 8 7 7 7 7 8 7 6 7 7 8 8 7 6
7 7 8 8 8 10 13 12 9 9 6 6 7 8 9 13 13 9 9 9 9 9 8 9 8 7 9 9 9 9 9 10 11 12 14 13 10 12 14 13 15 18 17 16 17 17 16 14 14 13 10 9 9 8 9 8 8 7 5 6 4 4 7 10 7 6 9 8 5 5 3 5 10 10 9 7 6 6 7 7 7 8 7 7 7 8 7 7 8 7 7 7 7 8 7 8 7
8 8 7 7 7 7 11 11 10 11 5 7 10 7 7 12 14 12 9 10 10 9 9 9 8 8 8 9 10 9 9 10 11 12 13 13 11 12 14 13 14 15 17 19 18 19 18 15 14 13 11 11 10 9 9 9 9 8 6 5 5 6 8 9 6 7 9 7 5 5 5 6 10 10 10 10 7 7 8 7 7 7 7 6 6 6 7 7 7 6 6 5 6 7 7 7 6
7 7 7 8 8 5 10 10 12 11 6 9 12 7 7 8 13 13 9 10 10 9 9 9 8 9 9 9 10 9 8 10 12 13 12 11 11 11 13 13 14 13 16 18 19 21 19 15 13 12 12 12 11 9 9 9 9 9 7 6 7 8 8 7 5 5 6 5 4 4 4 5 6 6 6 8 7 7 8 7 6 6 6 5 3 4 5 6 5 5 4 4 5 6 7 7 6
7 7 7 8 9 7 7 10 12 10 6 11 12 9 7 4 10 11 9 10 10 9 9 9 8 9 9 9 9 8 8 8 10 12 13 11 9 10 12 15 17 16 17 18 19 22 19 15 13 11 12 13 11 9 8 8 8 8 7 8 8 7 6 5 4 3 2 2 3 2 2 3 3 3 3 4 5 5 6 5 5 4 4 4 3 3 4 5 4 4 3 3 5 4 5 7 6
6 8 7 6 9 9 6 9 10 9 7 11 12 11 8 3 8 10 10 10 10 9 9 10 8 8 8 9 9 8 8 8 8 11 13 10 8 10 11 15 20 19 18 19 18 18 18 15 14 12 12 12 11 10 9 8 8 7 7 7 7 6 5 5 4 3 1 1 1 2 2 3 3 3 3 4 4 4 3 3 3 3 3 3 3 3 2 2 3 4 3 3 5 4 4 6 6
7 8 7 6 8 9 7 6 8 10 10 11 11 11 11 6 7 9 10 9 9 8 8 8 8 8 8 9 9 9 9 8 9 10 11 10 9 11 11 13 20 20 17 18 16 15 15 14 14 13 12 11 11 10 10 10 9 8 7 7 6 5 4 3 3 3 2 2 2 2 3 3 3 3 4 4 4 4 3 2 2 2 2 2 3 3 1 1 0 3 4 4 4 4 4 5 6
7 8 7 7 7 8 8 4 6 5 8 10 11 10 11 11 9 10 10 9 8 7 7 7 7 8 8 9 8 8 8 8 9 10 11 11 11 11 11 12 18 21 18 17 15 15 15 13 13 13 12 12 12 12 12 11 10 9 8 7 6 5 4 4 3 3 3 3 3 3 4 4 4 3 3 4 4 4 3 2 2 2 2 1 2 3 1 1 2 4 5 5 5 6 5 5 6
4 5 7 7 6 7 9 6 5 1 5 9 11 10 11 12 10 11 10 9 9 8 8 7 7 8 8 9 9 8 8 7 9 11 11 12 12 10 11 11 15 19 19 19 18 17 17 15 15 15 14 14 14 14 13 12 10 9 8 8 6 6 6 6 5 4 4 4 4 4 4 5 5 4 3 3 3 3 2 2 2 1 1 1 1 2 2 1 2 3 4 5 6 6 6 6 6
5 6 7 7 7 6 6 5 4 2 5 7 8 9 12 9 7 10 10 10 10 9 9 8 8 8 8 10 10 9 8 7 9 11 11 12 11 11 11 11 13 15 17 18 18 19 17 17 17 16 16 16 15 14 13 12 10 9 8 8 7 7 6 6 6 6 5 5 5 5 5 5 6 5 4 4 3 3 3 2 2 1 0 1 1 1 2 2 2 3 4 5 5 5 5 6 7
6 7 6 6 7 6 5 5 4 4 5 5 6 8 8 5 5 9 11 9 8 9 9 8 8 8 8 10 10 10 9 8 9 10 11 12 12 12 11 10 12 13 14 15 16 19 18 17 17 16 16 17 15 13 12 12 11 9 9 9 8 7 7 7 8 8 7 7 6 5 6 6 6 6 6 5 5 4 3 3 2 1 1 1 1 2 2 3 3 4 5 5 4 5 5 6 7
8 7 7 6 6 7 4 6 6 4 3 4 4 7 5 6 6 7 7 6 7 8 8 8 8 8 8 9 9 10 10 9 9 10 11 12 12 12 12 11 11 12 13 14 14 17 19 18 17 16 16 16 15 13 12 12 11 10 10 10 9 9 9 9 10 9 8 8 7 6 5 6 6 6 6 6 6 6 5 3 3 2 2 1 1 1 2 3 4 4 6 6 5 6 5 5 6
9 8 9 6 6 8 4 5 6 4 4 4 6 7 6 7 9 9 5 4 6 7 8 8 8 8 7 9 9 9 10 10 10 11 11 12 13 13 13 12 12 12 13 14 14 15 16 18 17 16 16 16 15 14 14 14 14 13 12 12 11 10 10 9 9 9 8 8 7 6 5 5 5 4 5 5 6 6 5 4 3 2 2 1 1 1 2 3 4 4 6 7 7 6 5 5 5
8 10 12 9 5 6 3 4 5 6 6 6 6 7 6 8 10 10 7 6 8 8 8 10 9 8 8 9 10 10 10 10 10 11 12 12 14 14 15 15 14 14 14 15 15 14 14 16 16 15 15 15 15 16 16 15 15 15 15 14 12 11 10 8 8 9 8 7 6 6 5 5 4 4 5 5 5 5 4 3 2 2 2 1 1 1 2 2 4 4 4 6 7 6 7 7 6
6 9 14 12 6 4 4 5 6 6 3 4 4 6 4 8 10 10 9 9 10 9 9 10 9 9 9 9 10 11 10 10 9 11 12 12 14 14 16 17 17 16 16 16 16 15 15 15 16 15 14 15 16 17 17 16 16 16 15 13 12 11 10 9 9 8 8 7 7 6 6 6 5 5 5 5 5 5 4 4 3 3 3 2 2 2 2 2 2 3 3 4 5 5 6 7 6
3 7 12 13 9 7 6 7 7 4 1 4 6 7 4 7 8 9 9 9 10 11 11 11 10 10 10 9 10 10 11 11 10 10 12 12 13 15 16 17 17 16 16 16 16 15 15 15 16 16 14 15 16 18 17 16 16 15 13 12 11 10 10 11 10 9 8 8 8 8 7 7 6 5 5 5 5 4 4 5 5 5 5 4 4 3 3 3 2 2 3 3 4 4 5 5 5
2 5 6 9 8 7 6 7 7 3 2 6 8 5 6 7 7 7 8 9 10 11 11 11 11 10 10 10 10 10 10 11 10 10 11 12 13 14 15 15 16 15 15 15 15 14 14 14 15 16 15 14 16 18 18 16 15 14 13 12 11 11 11 12 11 10 9 9 9 8 8 7 7 6 5 5 4 4 4 5 6 6 6 5 5 5 5 5 4 3 2 2 3 3 3 3 3
3 5 5 6 6 4 5 7 6 4 6 8 7 5 7 6 8 7 7 7 8 9 8 8 9 9 8 8 9 10 10 10 10 10 10 12 14 14 13 13 14 14 13 13 12 12 12 13 13 15 15 14 15 17 17 15 14 14 12 12 13 12 12 11 11 10 9 10 10 9 8 8 7 6 5 5 5 5 5 6 6 6 6 6 5 5 5 5 4 4 3 3 3 3 3 2 3
2 6 7 7 6 4 4 6 4 5 8 7 6 4 6 4 7 7 5 2 2 5 6 6 5 5 6 6 7 8 9 9 9 10 9 11 12 13 13 12 13 12 11 10 10 10 9 9 9 10 11 12 16 17 16 15 15 14 12 13 14 14 13 12 12 11 10 10 10 9 9 8 7 8 7 6 5 6 6 6 6 6 6 5 5 5 4 4 4 4 4 4 4 4 3 3 3
5 8 8 7 6 5 6 5 5 7 7 4 5 3 7 6 5 6 6 5 4 3 3 4 3 2 2 3 6 7 7 8 8 9 9 10 11 13 12 11 11 11 11 10 9 9 13 15 13 11 7 3 9 14 17 16 14 13 12 13 14 15 14 14 13 13 12 11 10 9 9 9 8 8 9 8 6 6 6 6 6 6 5 5 5 5 5 5 5 5 5 5 5 5 5 4 4
7 8 7 7 6 5 7 7 7 8 4 4 3 3 7 5 3 6 7 7 5 4 4 3 3 2 2 1 4 5 6 7 8 8 8 9 9 11 12 12 12 11 9 12 16 22 25 22 18 14 6 3 6 9 14 16 14 13 13 13 14 15 14 14 14 14 13 11 11 10 10 10 9 9 9 9 7 6 6 6 6 6 6 6 6 6 7 7 6 6 6 6 6 6 5 5 5
9 9 8 8 6 6 7 7 7 7 3 4 2 2 7 7 4 7 7 6 5 4 4 3 3 3 2 0 2 4 6 6 7 7 7 7 7 9 10 8 7 10 17 25 29 28 21 15 15 12 12 16 14 11 12 14 13 13 13 12 13 14 13 13 13 13 13 11 10 11 10 11 10 10 10 9 8 6 6 7 7 7 7 7 8 8 8 8 7 7 7 7 7 7 7 7 7
10 9 8 8 6 5 6 6 6 7 4 5 4 3 6 7 4 6 6 5 5 5 5 5 4 4 3 3 3 4 5 4 4 5 5 5 5 7 6 12 19 25 28 28 25 19 11 12 14 14 19 22 19 17 17 16 14 13 12 11 12 12 12 12 12 12 12 11 11 11 10 11 11 11 10 9 8 7 8 9 9 9 9 8 9 9 8 8 7 7 8 8 8 8 8 8 7
8 6 7 7 6 5 3 1 1 3 4 4 5 4 2 2 4 5 4 4 6 6 7 7 7 7 6 6 6 5 5 5 5 5 6 7 8 9 13 20 24 24 21 18 16 13 8 9 8 10 17 19 19 20 20 18 15 14 13 12 12 12 12 12 12 12 12 12 11 11 11 12 12 12 11 10 9 8 9 10 10 10 10 9 9 9 8 7 7 8 8 8 8 7 7 7 7
6 7 8 3 2 4 3 2 2 1 6 4 5 5 3 3 4 5 4 4 7 7 8 8 8 8 8 7 7 6 6 6 7 7 7 8 9 12 16 20 21 18 12 6 7 9 6 5 9 13 16 18 19 20 19 17 16 15 14 13 12 11 11 12 13 14 14 13 11 11 12 12 12 13 12 10 9 9 10 10 11 11 11 10 9 8 8 7 7 8 8 7 7 7 7 7 7
4 7 7 3 1 4 4 4 3 4 8 4 5 8 7 6 5 4 4 4 7 8 8 9 9 9 9 9 8 8 8 9 10 10 10 10 12 14 15 16 18 17 11 2 3 5 6 4 13 17 17 18 20 19 18 15 15 15 14 13 12 11 10 13 15 15 14 13 11 11 12 13 13 13 13 12 11 10 10 11 11 11 11 10 9 9 8 8 8 8 8 8 7 7 7 7 7
4 3 5 5 4 6 6 5 5 6 8 5 6 9 8 7 5 6 5 4 7 7 7 8 10 10 10 10 10 10 10 9 9 10 9 11 14 16 14 11 13 15 11 4 7 6 7 4 11 13 12 15 18 18 16 15 15 15 13 14 14 11 10 12 14 14 14 12 11 11 12 12 13 13 13 13 12 11 11 11 11 11 11 10 10 9 9 8 8 9 8 8 8 8 8 8 8
3 3 5 5 5 5 5 5 5 5 7 6 6 8 7 4 3 6 6 5 5 5 7 8 10 10 9 9 9 9 8 7 6 7 8 9 12 15 13 10 11 13 11 7 10 5 8 4 10 10 7 8 12 14 14 13 12 12 13 14 14 11 10 12 13 13 12 12 11 11 12 12 12 12 13 13 12 12 11 11 12 11 11 10 10 9 9 9 9 8 8 8 8 8 8 9 8
7 7 7 6 4 3 4 5 5 5 6 6 6 7 4 3 5 4 5 4 2 3 6 8 8 9 9 8 8 7 7 6 6 7 8 8 9 11 12 9 9 10 10 8 6 2 6 3 5 5 4 5 7 8 10 9 9 10 12 12 13 13 12 13 14 13 11 11 11 11 11 12 11 12 13 13 12 12 12 11 12 11 11 11 10 10 9 9 9 8 8 8 8 8 8 8 8
5 8 9 9 7 5 6 7 6 5 6 5 6 7 2 5 3 3 4 3 1 4 7 8 8 9 9 8 7 6 6 6 7 8 8 8 9 9 10 9 7 6 7 8 4 3 3 3 1 2 2 4 5 6 7 8 7 8 11 12 13 14 13 13 14 13 10 11 11 11 11 12 11 11 12 13 12 12 12 12 11 11 11 11 11 10 9 9 9 9 8 8 8 8 8 8 7
Wind_Direction
176 176 165 169 186 193 194 216 230 192 236 247 228 239 160 128 98 171 36 135 170 84 352 312 161 204 236 352 74 57 27 14 11 355 90 92 144 146 148 148 149 147 143 142 145 149 150 153 152 150 150 148 146 146 145 145 147 148 147 147 148 149 150 149 143 142 143 142 141 140 138 135 133 132 131 132 135 135 135 134 134 132 134 136 135 136 134 132 132 132 130 128 127 126 123 123 123
181 176 168 177 194 208 188 209 247 189 214 239 226 232 120 121 175 171 43 55 79 76 86 97 125 140 40 3 58 129 60 45 43 65 85 129 144 142 148 149 151 146 141 142 144 146 148 154 154 151 150 148 147 146 147 148 148 149 149 148 150 150 151 148 146 146 145 145 143 142 139 136 135 132 130 129 131 135 135 135 136 136 139 139 137 139 137 135 136 137 135 134 132 129 126 126 124
187 179 176 186 197 224 207 200 248 222 213 235 224 185 131 171 178 114 54 68 85 102 127 120 128 104 205 180 157 300 96 75 72 88 111 142 142 144 149 149 150 143 139 141 143 147 149 154 154 152 150 149 148 147 150 152 153 154 153 153 154 152 153 153 152 149 147 146 144 143 141 140 140 136 133 131 130 133 136 138 139 138 137 136 137 140 139 139 140 141 140 138 136 132 131 130 127
183 191 192 194 194 222 215 205 242 246 227 231 220 136 156 208 145 102 67 63 94 167 175 156 135 49 304 133 99 17 100 94 84 104 129 142 144 148 148 146 148 144 142 142 145 147 150 155 154 152 150 149 149 149 152 155 157 156 156 156 156 156 155 155 152 150 148 147 146 145 144 144 143 141 139 137 134 134 137 137 134 134 135 136 136 140 141 142 142 142 142 140 139 137 137 134 129
185 196 206 219 213 212 221 219 235 244 238 239 230 111 138 119 82 82 80 0 266 222 206 199 142 110 25 59 19 346 93 98 106 120 123 125 140 146 147 146 147 149 146 144 146 146 151 155 152 152 150 148 148 149 152 154 156 156 157 156 155 154 152 152 150 150 149 148 147 146 146 146 145 144 142 139 135 135 134 132 132 133 136 138 139 141 142 143 144 144 145 143 144 145 140 133 129
179 183 205 241 263 281 237 222 223 232 238 269 281 110 115 64 24 332 351 267 254 239 216 208 184 144 129 73 38 44 61 85 122 130 134 136 143 146 148 149 148 150 150 146 146 147 154 156 153 153 150 147 146 147 150 152 154 155 156 153 151 149 149 150 151 151 150 149 147 145 146 146 146 146 143 137 135 136 135 139 145 142 137 137 139 141 142 143 144 145 147 148 147 148 143 138 135
179 175 189 227 238 231 235 224 227 225 207 283 299 85 32 354 335 300 289 246 210 215 209 202 194 160 127 122 105 71 53 324 120 137 144 144 144 146 150 151 149 150 152 149 144 146 155 157 155 154 151 148 147 147 149 150 152 153 153 151 150 149 150 151 153 152 150 148 144 143 145 144 144 143 142 138 139 141 140 149 152 142 133 131 136 138 140 140 142 147 149 149 148 151 151 150 145
195 195 184 212 205 203 235 234 235 233 123 19 294 335 334 327 306 281 276 242 202 188 195 193 196 176 124 157 132 89 77 29 110 131 138 143 144 149 151 151 150 151 154 149 142 146 155 156 155 155 154 151 149 149 150 151 152 153 154 153 153 153 153 152 153 152 149 145 141 142 143 142 141 139 140 139 142 143 142 145 138 129 124 123 130 133 137 140 147 152 151 150 150 154 156 156 150
203 211 186 219 219 204 234 238 234 243 261 309 280 318 325 307 289 277 264 238 221 199 192 183 198 185 141 157 116 110 101 81 120 129 138 142 144 150 151 153 152 152 155 148 142 147 155 156 155 155 155 155 152 152 152 153 154 155 156 157 158 156 155 154 154 154 149 144 142 142 142 142 140 139 139 140 142 142 141 138 129 124 122 121 125 129 134 141 149 150 145 145 150 153 152 151 150
201 216 203 221 229 216 228 233 226 224 235 269 292 331 336 306 285 267 256 241 208 194 174 165 199 183 150 144 114 119 112 119 134 132 141 144 143 150 149 154 153 153 154 148 142 146 155 156 155 154 155 156 155 155 155 156 156 157 159 160 160 158 157 156 156 157 152 147 145 143 143 143 140 142 141 141 142 139 140 136 131 128 128 127 125 127 132 138 142 143 141 142 148 150 154 156 152
203 208 220 223 225 225 226 224 213 181 143 212 219 2 356 319 283 256 245 242 206 177 154 169 186 161 146 137 120 111 117 141 144 136 145 146 144 148 149 154 154 153 151 146 143 146 153 155 155 154 155 157 158 159 159 159 160 161 163 164 163 161 159 159 159 158 154 150 148 146 145 144 142 144 145 143 144 143 144 139 137 135 133 133 131 132 137 144 146 147 146 144 148 148 157 165 157
217 189 211 225 223 226 231 241 217 180 176 202 127 30 359 311 277 257 231 216 195 167 162 183 164 149 149 137 123 116 137 155 143 140 146 148 147 148 151 154 152 150 147 143 141 144 150 154 157 156 157 159 160 162 162 163 164 165 167 168 166 162 160 159 160 157 155 154 150 148 146 146 145 147 148 146 147 149 148 144 143 138 133 136 139 140 144 152 158 162 160 156 161 162 162 163 162
232 197 210 225 237 239 241 255 224 224 207 173 48 13 348 325 312 283 233 195 185 170 164 175 152 157 150 123 121 128 151 152 142 147 149 151 150 150 153 150 148 147 144 143 142 144 149 153 157 159 162 163 163 164 164 165 166 167 168 168 165 161 159 158 158 157 157 157 152 147 145 147 149 150 151 150 150 149 148 143 140 135 130 137 140 142 149 153 159 166 172 174 175 175 167 160 162
232 218 229 231 241 247 246 248 217 228 202 120 50 354 355 8 349 291 207 177 170 155 140 145 160 165 143 129 147 158 157 149 148 151 150 151 150 154 153 146 148 149 149 150 148 149 152 154 158 163 165 166 166 167 167 168 167 168 168 165 163 160 159 158 157 157 156 154 148 144 143 145 146 148 150 150 150 150 151 146 139 135 132 131 132 139 148 146 142 144 155 163 166 172 168 160 156
235 241 241 243 241 235 233 239 239 233 174 101 49 339 358 42 339 223 173 171 145 114 123 130 169 185 168 168 167 163 155 150 152 150 150 149 149 154 149 146 150 151 156 155 152 154 155 157 161 166 167 168 169 169 170 172 169 168 167 163 161 159 158 158 154 152 151 146 142 140 138 139 141 143 148 150 153 156 155 153 149 141 133 127 131 139 143 137 129 123 122 127 139 153 161 157 152
236 251 232 242 241 226 214 213 238 233 135 91 52 333 316 84 0 204 52 200 133 134 163 136 82 321 198 187 135 147 149 148 152 148 146 144 146 152 147 148 152 152 157 154 154 157 159 164 166 170 174 174 173 171 171 173 172 167 164 160 158 155 152 151 148 148 146 141 138 136 133 133 136 138 141 147 152 157 158 157 152 144 135 131 135 140 142 139 128 117 114 116 120 130 144 150 151
219 245 232 234 233 224 208 200 214 206 115 94 61 356 334 101 95 116 106 205 143 145 170 124 100 356 339 86 121 139 143 146 151 148 146 145 147 153 146 146 152 153 157 156 159 163 166 172 169 173 180 179 175 173 172 173 172 167 161 156 154 150 145 145 147 147 142 141 139 133 130 131 135 135 138 144 146 151 156 155 151 147 141 137 140 143 145 146 139 128 123 120 119 125 131 141 151
204 225 227 230 229 221 216 209 215 92 103 83 57 8 342 95 118 138 159 157 142 151 143 136 121 74 83 98 124 137 140 147 153 151 150 152 154 157 150 149 158 159 160 160 166 170 171 174 172 176 180 179 177 173 171 172 170 166 160 154 151 145 141 146 151 148 144 145 141 133 133 137 141 141 145 146 145 153 156 152 151 152 149 145 144 144 145 146 148 147 139 132 129 127 124 133 154
214 225 227 234 235 215 220 246 291 0 50 48 57 10 352 52 119 166 178 151 157 172 152 159 141 115 117 119 135 140 142 149 156 158 156 159 161 162 158 159 166 167 167 164 166 171 171 174 175 177 178 177 178 175 172 169 166 167 160 150 145 139 141 153 157 152 148 147 143 138 139 143 145 148 155 154 155 161 158 153 153 155 154 152 151 150 150 149 154 154 150 146 130 117 124 152 173
220 230 232 234 233 235 224 234 233 0 352 1 42 2 2 36 102 191 186 157 173 178 155 176 166 145 142 137 148 148 147 155 162 166 165 166 166 167 166 167 171 171 170 165 165 169 170 174 174 174 175 174 176 178 172 158 155 161 149 142 140 139 146 162 164 156 151 150 146 141 141 146 149 155 163 163 161 162 161 157 153 156 157 156 157 157 160 161 160 157 153 148 135 122 141 175 181
212 218 239 249 222 234 210 192 209 331 331 322 343 303 103 31 337 224 190 169 178 177 155 174 170 156 154 151 160 157 153 161 169 172 171 170 168 171 173 172 173 173 169 165 165 166 168 170 168 168 168 168 165 153 143 143 144 130 114 128 137 141 154 169 168 161 154 147 140 138 146 151 156 162 164 164 164 164 166 164 160 162 160 160 160 158 164 168 166 166 162 156 154 152 150 168 180
216 216 241 272 221 231 194 169 207 291 290 284 288 274 40 358 274 252 225 192 155 143 132 134 166 159 160 158 163 165 163 168 175 178 175 172 171 174 175 172 172 169 166 167 167 164 165 166 164 165 162 160 144 120 123 135 128 100 95 129 148 151 162 173 171 162 144 138 141 148 158 159 165 170 165 168 172 173 175 171 171 168 164 164 166 167 169 172 175 176 172 167 162 160 159 165 180
228 219 226 237 231 239 227 199 214 257 264 262 273 304 336 262 238 250 254 237 74 32 346 333 190 159 158 159 166 173 171 173 179 181 178 175 176 176 171 169 168 165 166 168 165 159 161 166 167 163 148 124 107 121 148 142 119 113 131 149 157 157 163 175 171 147 123 147 161 158 170 173 176 184 174 177 180 180 183 178 173 169 167 169 171 175 176 178 181 178 174 169 163 164 166 167 180
230 229 208 218 230 239 248 249 239 250 261 266 292 292 270 248 238 221 247 254 37 352 312 252 183 154 155 160 170 177 173 175 182 182 178 179 179 171 165 167 167 168 164 157 155 154 159 169 168 151 126 110 104 129 154 149 136 145 154 151 158 160 162 170 160 147 150 168 165 158 181 178 175 204 193 183 187 185 184 182 179 176 176 174 175 179 180 182 181 177 173 167 164 165 164 168 178
226 235 213 207 220 233 243 249 249 253 255 249 256 262 255 251 269 254 233 214 43 323 263 195 169 151 158 164 172 178 174 175 182 181 177 181 176 163 167 172 172 170 159 149 144 145 160 167 151 127 122 124 120 129 142 145 145 150 151 147 153 153 153 146 158 191 180 159 153 172 193 183 177 207 208 193 189 186 186 189 192 190 188 181 180 185 185 183 178 175 171 164 162 162 163 168 172
217 230 227 213 223 230 236 241 245 247 243 227 237 242 229 236 263 242 220 161 125 178 171 168 160 156 162 166 173 180 176 176 182 179 171 170 163 164 179 179 172 165 154 149 144 153 167 153 123 129 138 140 135 129 134 141 143 148 158 163 173 172 161 160 192 207 182 152 173 192 201 192 190 204 211 204 194 191 196 198 198 196 196 189 188 190 186 182 180 174 169 163 162 161 161 164 168
207 226 231 232 237 233 234 241 240 243 237 220 233 237 190 175 234 222 179 144 153 159 156 160 161 163 164 165 173 180 179 177 177 171 162 157 165 180 187 175 156 147 146 144 145 159 160 138 134 152 156 151 143 133 135 142 140 144 156 182 205 195 174 229 224 216 180 191 200 204 203 192 200 212 209 210 210 203 206 216 209 199 200 199 195 191 186 183 180 175 169 166 164 161 158 160 164
207 224 229 232 239 234 232 240 235 235 231 217 228 238 179 176 223 217 143 144 167 159 156 161 166 162 162 167 170 178 182 178 173 169 169 172 181 186 173 149 135 138 141 128 124 142 150 161 173 166 159 159 147 136 137 137 133 132 141 182 199 174 166 231 240 229 212 221 213 208 207 187 190 208 213 224 228 216 216 229 223 207 202 200 195 188 187 183 178 176 171 168 166 161 156 158 159
221 220 232 222 224 230 226 228 225 220 216 195 207 226 200 194 214 197 135 148 164 163 165 161 165 163 162 168 170 180 181 175 176 175 176 176 179 173 153 138 139 142 137 119 120 140 161 180 183 173 172 168 150 142 140 132 131 130 150 187 181 159 193 229 237 225 229 231 220 218 215 203 209 213 220 232 240 239 234 235 237 229 213 202 195 188 188 185 181 177 169 168 171 167 159 157 156
217 215 242 226 219 229 215 211 208 211 201 163 197 231 214 202 203 178 146 163 168 169 174 164 166 165 163 170 176 179 171 172 180 178 176 175 174 165 152 144 143 140 130 132 145 160 173 183 183 179 175 166 159 155 143 136 136 136 172 207 182 168 206 223 218 215 233 233 222 226 204 213 230 224 225 235 237 245 249 244 244 242 228 213 200 193 190 189 188 177 168 169 174 175 165 159 159
212 206 229 233 238 221 187 190 198 203 179 168 209 241 230 199 181 169 160 171 178 180 177 168 168 166 165 173 179 175 168 176 175 166 166 174 177 163 157 151 142 139 137 150 172 185 189 193 191 181 171 169 170 166 152 145 142 142 173 210 191 191 215 223 213 216 235 237 229 231 201 210 239 239 236 243 241 245 251 250 247 245 239 227 208 196 191 193 192 175 169 168 170 178 170 164 161
208 207 214 219 236 206 167 177 199 205 169 181 211 234 240 199 157 160 166 172 185 190 178 167 167 166 167 174 179 177 174 176 168 164 165 172 177 163 163 156 140 148 159 168 187 196 199 201 197 183 174 174 171 171 164 152 150 153 171 190 188 197 213 216 207 208 226 226 211 217 199 199 232 245 241 240 239 242 244 244 249 251 250 246 232 212 196 195 190 167 168 168 168 177 167 163 163
201 217 223 206 214 218 179 171 195 212 172 183 212 234 240 170 143 158 166 177 188 193 181 167 165 165 171 177 179 179 176 174 174 184 183 175 181 173 162 156 157 174 183 183 189 196 201 202 196 186 175 174 171 170 169 160 157 161 168 173 174 179 183 174 174 194 202 190 176 171 169 170 202 231 227 221 224 231 233 234 241 246 252 257 256 239 210 195 175 154 165 161 158 171 160 158 164
190 211 227 206 211 226 196 162 178 201 200 198 209 231 243 149 141 163 170 183 191 195 185 167 166 168 174 181 182 183 178 179 190 200 194 175 174 180 165 162 170 178 188 196 198 196 198 198 192 184 176 172 168 166 166 161 155 159 163 159 154 151 155 152 153 172 180 169 146 122 133 143 169 195 196 197 199 203 207 217 234 243 250 262 273 268 236 182 153 149 160 155 151 161 168 168 173
193 198 216 208 210 228 218 165 155 181 205 214 205 218 236 213 166 171 175 186 193 193 183 168 169 170 176 185 190 191 188 193 201 201 193 180 181 186 179 171 171 174 189 203 204 197 191 190 185 181 178 169 164 165 162 156 152 154 154 147 145 142 139 138 140 143 142 142 132 130 137 144 164 172 176 181 173 169 175 195 218 235 242 266 284 284 342 68 172 164 157 155 147 147 165 175 174
211 198 213 215 200 214 217 158 120 177 208 215 213 215 230 225 197 183 177 180 191 187 178 176 172 170 179 189 193 195 196 201 202 198 193 193 198 192 184 177 169 171 185 191 190 191 184 176 177 179 177 167 162 163 158 154 153 153 156 151 147 147 141 131 128 125 123 129 130 136 138 137 151 153 155 163 156 156 165 181 198 212 233 263 280 290 5 34 219 179 155 147 142 136 148 161 165
240 207 216 223 211 206 201 158 107 198 235 219 220 223 230 230 205 183 174 175 189 188 181 185 179 174 179 189 193 192 195 197 192 195 197 197 200 193 186 181 167 166 177 181 177 183 181 173 177 180 175 169 164 164 161 156 152 153 161 159 152 154 151 140 134 124 115 123 129 135 138 135 141 142 138 141 138 145 150 160 176 177 216 245 272 299 325 287 214 175 149 147 150 146 149 158 161
237 222 216 215 219 208 170 139 120 166 241 223 209 226 229 223 197 177 173 178 191 193 188 188 185 180 180 187 191 189 189 186 181 189 197 198 194 191 191 183 172 167 173 177 171 175 180 176 180 180 173 171 168 163 161 154 152 159 161 154 151 146 141 136 131 125 121 121 124 126 128 127 131 133 131 129 124 123 127 130 138 131 137 218 242 253 247 239 208 172 158 157 160 160 158 163 168
228 222 222 216 213 202 136 122 152 174 238 226 189 221 217 183 190 183 178 186 191 192 193 193 188 184 185 187 187 189 186 178 177 185 194 198 191 191 196 186 180 175 173 179 175 174 179 180 181 179 173 172 170 165 159 154 156 162 155 147 145 139 128 120 115 117 121 119 118 116 119 122 124 128 129 129 124 117 117 111 109 101 94 153 214 217 221 219 197 186 176 158 154 164 165 171 184
226 219 221 216 190 206 187 148 165 175 244 263 212 216 192 155 184 180 177 196 188 188 196 198 194 190 190 187 185 189 187 180 182 189 193 197 194 191 195 190 185 183 179 185 182 175 178 181 180 178 173 170 170 167 158 155 157 155 148 142 140 137 129 120 113 114 116 116 116 112 115 120 121 124 125 124 123 117 109 98 91 85 77 93 152 196 201 205 194 195 185 166 165 172 165 177 198
217 220 229 224 181 215 240 129 155 176 192 237 228 216 189 169 183 174 162 192 188 189 196 202 200 192 186 185 188 193 191 187 187 193 192 194 195 192 195 194 189 188 187 188 187 181 179 179 178 177 173 168 167 165 158 157 158 151 145 142 138 137 134 130 125 122 122 120 117 114 116 116 117 125 124 121 119 112 100 83 75 79 71 70 92 150 174 188 186 190 192 184 190 196 186 193 206
208 212 230 243 204 212 237 137 179 208 189 191 220 225 187 168 184 177 157 175 192 191 198 206 200 193 191 187 190 195 194 192 191 194 193 195 195 192 194 195 191 192 194 191 186 183 181 177 177 177 173 168 165 164 163 161 159 154 150 149 149 147 144 140 135 130 129 122 115 119 122 118 117 120 120 116 109 99 91 86 84 97 98 79 78 108 141 174 176 174 190 188 189 201 204 207 207
210 191 212 230 228 217 227 204 211 229 190 152 220 248 191 167 183 177 164 178 191 192 201 208 201 198 198 193 192 192 192 191 192 196 196 196 195 192 195 197 194 193 195 194 188 184 185 181 178 177 174 171 165 166 169 164 159 158 155 153 153 150 144 138 134 130 126 118 114 121 126 123 118 115 116 112 104 97 100 110 106 105 115 124 124 114 114 140 159 153 170 183 180 190 204 212 205
202 151 193 210 213 215 221 223 225 236 120 146 217 253 226 176 169 164 170 184 193 197 202 204 203 200 196 194 192 188 189 189 190 197 198 199 199 198 199 197 197 195 193 196 189 181 184 185 181 178 175 172 169 170 171 165 161 160 159 154 148 145 142 140 139 134 128 123 120 122 126 125 118 114 114 109 105 103 106 113 103 94 101 110 118 113 100 98 97 108 140 168 170 177 194 209 204
102 109 193 204 205 215 219 228 229 221 221 204 202 230 233 182 143 143 173 192 199 199 199 198 199 199 195 196 192 186 185 186 190 194 196 200 199 201 202 200 201 197 190 193 189 179 180 184 182 178 176 175 173 171 168 166 163 161 160 153 145 142 141 142 142 138 134 129 125 124 126 126 121 114 109 104 103 102 109 114 104 96 95 93 96 96 88 82 79 74 91 128 139 146 166 184 191
89 123 174 177 189 212 222 233 225 197 232 226 184 202 242 188 149 161 179 193 194 182 185 190 191 195 198 196 191 188 183 182 191 191 192 197 196 200 203 199 199 193 189 190 180 166 166 173 177 177 177 174 169 168 165 164 162 162 163 155 146 143 142 144 142 139 139 135 134 133 131 131 129 123 114 106 100 98 106 111 105 100 95 89 82 82 81 75 74 70 65 76 94 108 113 121 166
155 176 175 171 186 199 215 232 228 211 228 216 165 197 253 206 172 174 157 139 132 140 151 148 153 184 200 200 193 190 185 182 187 184 182 188 189 193 196 193 192 186 180 175 162 156 156 160 167 169 174 172 165 164 163 163 164 167 168 157 148 146 146 147 145 145 147 144 143 142 138 136 133 131 126 115 104 98 98 94 95 95 88 84 73 68 72 70 69 68 69 74 78 87 99 108 134
207 202 191 187 190 194 208 208 212 229 228 174 134 196 242 224 179 152 116 79 48 59 105 102 97 131 169 210 204 191 185 182 182 179 173 176 183 188 190 188 185 175 166 161 148 119 96 87 85 80 72 134 166 167 165 165 169 170 169 159 152 153 152 151 151 152 154 152 150 145 140 137 134 135 132 122 110 99 97 91 89 92 85 77 70 68 72 74 75 76 76 79 79 84 99 115 130
211 211 202 201 198 198 211 205 208 227 218 126 120 212 230 220 124 109 101 82 56 32 34 34 17 22 50 241 214 193 183 179 179 174 165 168 179 184 183 183 183 177 152 120 100 90 86 86 86 79 76 165 198 196 175 169 173 172 167 162 157 158 157 155 154 155 156 155 153 149 144 139 139 139 133 124 115 103 100 101 97 93 86 77 76 81 84 85 86 86 81 79 80 82 87 101 117
205 207 204 213 210 201 212 211 212 219 181 117 127 222 224 206 115 84 78 68 57 51 50 37 21 20 34 19 202 182 178 181 177 169 167 172 177 184 187 175 140 107 89 88 89 87 90 109 118 130 172 179 186 206 192 177 177 173 170 166 161 161 161 158 157 156 155 153 152 152 146 140 141 139 131 122 115 107 101 103 99 91 88 87 89 90 91 90 88 92 91 85 83 82 83 90 99
207 212 213 226 230 219 223 226 226 224 189 137 150 206 226 207 119 68 66 73 71 70 75 77 71 69 81 98 121 138 148 154 155 159 152 132 135 155 135 90 88 92 92 95 97 94 110 146 144 159 177 174 182 196 193 186 182 175 173 169 164 165 164 160 157 154 152 151 152 153 146 140 141 137 130 121 114 108 104 103 99 95 95 97 98 97 97 93 86 91 95 92 90 87 88 91 92
201 221 224 229 241 234 228 264 300 260 223 171 176 211 238 175 107 85 87 90 81 74 77 82 84 86 90 93 96 104 116 117 115 126 115 104 115 114 97 96 103 105 106 114 121 119 138 160 164 186 182 177 189 195 192 191 186 181 177 173 172 172 167 161 155 151 149 149 151 151 144 140 139 136 131 125 118 112 109 105 100 99 101 104 105 103 101 97 90 93 98 96 93 92 94 95 94
181 211 221 213 283 254 229 167 97 295 249 202 182 215 190 152 144 115 114 99 80 70 72 78 82 90 94 93 96 100 104 103 98 103 108 111 112 98 96 110 117 110 102 117 142 131 127 172 202 211 199 190 196 198 196 193 189 187 182 178 179 175 168 162 155 151 149 149 152 152 144 139 140 139 135 131 126 120 116 113 107 104 105 107 110 107 104 103 99 99 103 101 97 97 98 95 95
204 211 203 139 32 249 243 235 189 213 237 204 182 218 206 188 182 133 120 91 73 67 70 80 86 91 92 90 91 93 95 105 110 110 108 102 96 92 99 119 126 121 114 122 217 142 112 173 205 209 208 202 202 201 196 193 192 189 182 179 181 173 169 164 157 154 153 152 156 154 145 142 144 143 141 139 133 128 124 120 116 112 110 110 112 112 111 111 109 109 110 107 104 103 102 99 99
267 247 188 180 224 218 209 230 222 212 227 215 195 212 216 211 183 132 120 73 65 72 78 87 90 87 88 88 89 94 100 110 112 103 95 91 93 97 104 125 139 136 136 197 246 183 129 184 222 218 214 209 206 202 195 193 194 188 179 182 184 176 169 163 156 155 157 158 159 156 149 147 148 147 146 144 140 138 136 131 126 122 118 116 115 115 117 117 117 118 117 116 114 111 110 109 109
233 258 204 204 244 237 211 219 226 226 230 220 202 207 214 208 110 102 101 71 67 86 92 94 89 84 87 90 92 96 97 100 101 92 86 82 82 94 112 150 167 150 151 214 249 198 136 188 239 228 214 204 200 197 193 192 191 183 176 179 181 177 171 168 166 163 161 162 162 158 155 153 153 151 149 149 147 147 146 140 136 132 127 125 121 119 121 122 122 122 122 123 123 121 117 114 115
200 214 208 205 215 237 242 227 227 245 241 221 215 217 196 88 60 70 79 67 57 98 107 106 98 94 97 97 97 96 89 89 93 91 93 89 79 91 115 151 170 150 150 187 236 186 129 163 246 235 203 183 181 184 187 186 183 178 175 176 179 179 179 180 179 172 166 167 165 162 161 159 159 157 154 154 154 153 153 148 144 141 137 135 133 130 128 126 125 125 125 128 131 131 125 122 124
225 220 217 216 211 211 227 223 211 235 251 242 237 231 160 74 48 47 59 65 146 148 131 123 113 107 108 107 101 96 95 96 93 91 96 101 100 102 111 125 138 139 145 152 136 91 111 135 192 226 203 187 182 178 183 185 182 180 180 183 186 185 184 183 182 177 175 174 170 168 168 166 167 166 160 158 158 158 157 154 151 150 148 145 143 141 138 135 134 134 134 138 142 142 136 135 137
Height
788 789 788 789 788 789 787 784 790 785 783 784 770 765 765 759 761 763 764 761 762 763 758 756 756 756 759 761 759 758 760 763 767 774 780 775 768 769 771 773 776 779 782 786 788 790 792 794 795 796 797 798 799 800 802 804 806 808 810 811 813 814 815 816 817 818 820 821 822 823 824 825 825 826 826 827 827 828 828 829 829 829 830 830 830 831 832 832 833 833 833 834 834 835 835 835 835
789 789 788 789 787 788 784 782 790 784 784 786 768 762 762 760 764 766 765 763 763 761 755 755 756 757 758 757 756 759 764 764 764 769 773 771 770 771 773 775 777 780 783 786 789 791 794 795 796 797 797 798 799 801 802 804 806 808 810 812 814 815 816 817 818 818 820 821 823 824 825 825 826 827 827 828 829 829 829 830 830 830 831 831 831 832 832 833 833 834 834 835 835 835 835 836 836
789 789 789 789 786 784 781 784 790 782 784 785 766 756 759 762 764 764 764 761 760 758 756 755 757 759 759 761 761 764 768 764 763 768 771 771 772 773 775 777 779 781 784 787 790 792 795 796 796 797 798 799 800 802 803 805 807 809 810 812 814 815 817 817 818 819 820 822 823 824 825 826 827 827 828 829 829 830 831 831 831 831 831 831 832 833 833 833 834 835 835 835 835 836 836 836 837
788 788 788 786 785 785 784 788 786 779 781 776 764 756 758 762 760 762 761 759 757 756 758 757 760 760 759 766 764 763 767 765 765 768 771 772 773 775 777 779 781 783 785 788 791 793 795 796 797 798 799 800 801 803 804 806 808 809 811 812 814 816 817 818 819 820 821 822 824 825 826 826 827 828 829 829 830 831 831 832 832 832 832 832 833 834 834 835 835 836 836 836 836 836 836 837 838
788 788 787 784 785 784 781 785 781 779 776 764 761 760 759 760 761 762 759 759 756 755 758 757 762 761 758 764 763 765 768 766 767 768 771 774 774 777 778 780 782 784 786 788 791 794 795 796 797 798 799 801 802 804 806 808 809 811 812 813 815 816 818 819 819 820 821 822 824 825 826 827 828 828 829 830 831 831 832 832 833 833 833 833 834 835 835 836 836 836 837 837 837 837 837 837 838
787 787 787 784 781 778 781 785 782 778 767 755 759 762 760 760 761 762 759 758 755 753 754 756 760 760 763 765 762 765 769 769 769 770 773 775 776 778 780 781 783 785 787 789 791 793 795 796 797 799 800 801 803 805 807 808 810 811 812 814 815 816 818 819 820 821 822 823 824 825 826 827 828 829 830 830 831 832 833 833 833 833 833 834 835 835 836 837 837 837 837 838 838 838 838 838 839
786 786 786 786 781 780 785 784 777 771 761 755 760 761 761 760 759 760 761 760 757 755 753 756 754 758 768 765 765 768 770 771 769 771 775 776 778 779 781 782 784 786 788 789 791 793 795 796 798 799 800 802 803 805 807 809 810 812 813 814 815 817 818 820 821 822 822 823 823 825 826 828 829 830 830 831 832 832 833 834 834 834 834 835 835 836 837 838 838 838 838 838 839 839 839 839 840
784 782 781 785 785 784 785 778 770 763 759 758 759 761 761 759 758 760 761 760 760 757 756 756 751 761 769 761 768 771 770 772 770 773 775 777 779 780 782 783 785 787 788 790 791 794 796 797 799 800 801 803 804 805 807 809 811 812 814 815 815 817 818 820 821 822 823 823 823 825 827 828 829 830 831 832 832 833 833 834 834 835 835 836 836 837 838 838 838 838 839 839 839 840 840 840 841
782 780 781 784 783 784 782 775 768 760 760 760 759 760 760 758 757 759 761 759 758 757 756 754 752 762 767 762 770 771 770 774 773 775 777 779 780 781 783 784 786 787 789 790 792 794 796 798 799 801 802 803 805 806 807 809 810 812 814 815 815 816 818 819 821 822 823 823 824 825 827 828 829 830 831 832 833 834 834 835 835 836 836 837 837 838 838 839 839 839 839 839 840 840 841 841 842
780 779 781 782 780 784 782 773 766 762 762 761 760 759 759 758 757 758 759 757 755 756 755 752 754 759 762 767 771 770 772 775 774 777 778 780 781 783 784 785 787 788 790 791 792 795 797 799 800 801 803 804 805 806 807 808 810 811 813 814 815 816 817 819 820 822 823 823 824 825 827 828 829 830 832 833 834 834 835 836 836 836 837 837 838 838 839 839 840 840 840 840 841 841 841 842 843
781 778 777 781 782 783 777 769 763 762 762 760 760 758 758 758 758 758 757 757 753 756 756 755 759 757 761 768 771 772 774 775 775 777 779 781 782 784 785 787 788 789 790 791 793 795 797 800 801 802 803 804 805 806 807 808 809 811 812 814 815 816 817 818 820 822 823 824 824 826 827 828 829 830 832 833 834 835 836 837 837 837 837 838 838 839 839 840 840 840 841 841 841 841 842 843 843
781 779 778 782 779 774 768 765 763 762 762 762 761 757 756 756 759 759 757 758 754 757 758 756 756 755 765 770 769 773 775 776 776 777 780 781 783 785 786 787 789 790 791 792 794 796 798 800 801 802 803 804 804 805 806 807 809 809 811 813 815 816 817 819 821 822 823 824 825 826 827 828 830 831 832 833 834 836 836 837 838 838 838 838 838 839 840 840 841 841 841 841 842 842 842 843 844
778 775 778 780 770 766 766 765 765 766 765 762 763 758 756 757 760 758 755 756 755 759 758 753 751 754 767 770 769 773 774 776 777 779 781 782 784 785 787 788 789 791 792 793 795 797 798 800 801 803 803 804 804 805 806 807 808 809 811 813 814 816 818 820 821 822 824 825 826 826 828 829 830 831 832 833 835 836 837 838 838 839 839 839 839 839 840 840 841 841 841 841 842 842 843 843 844
774 769 774 776 768 767 767 766 765 768 764 759 762 759 756 759 759 756 754 757 757 757 755 750 749 757 767 770 773 774 774 776 777 780 781 782 784 785 787 788 790 791 792 794 796 798 799 800 802 803 804 805 805 805 806 807 808 810 812 813 815 816 818 820 821 823 825 826 827 827 828 830 831 831 832 834 835 836 837 838 838 839 839 839 839 840 840 841 841 842 842 842 842 842 843 843 844
772 769 773 774 770 770 767 766 765 765 762 759 762 759 757 758 757 755 753 757 759 753 752 752 752 761 767 767 771 769 772 776 777 780 781 783 785 786 788 789 791 792 793 794 796 798 799 801 802 803 804 805 805 805 807 808 809 811 813 814 816 818 820 821 822 824 825 827 827 828 829 830 831 832 833 834 835 836 837 838 839 839 840 840 840 840 841 841 842 842 842 842 842 842 843 844 845
771 770 775 776 773 770 766 765 766 765 761 759 760 757 758 758 755 757 754 753 759 756 754 758 756 761 763 760 761 763 771 776 778 780 781 784 785 786 788 789 791 792 794 795 796 798 799 801 801 802 803 804 805 806 807 809 811 812 814 816 818 820 821 822 823 825 827 828 828 829 829 831 832 833 834 834 835 837 838 838 839 839 840 840 840 841 841 842 842 842 842 842 843 843 843 844 845
771 774 778 778 772 769 764 763 765 763 759 759 759 757 760 760 756 756 753 751 757 759 758 760 758 758 758 756 757 763 772 776 778 780 781 784 785 786 788 789 791 792 794 795 797 798 799 800 800 802 803 804 805 806 808 810 812 814 816 818 819 821 822 824 825 827 827 828 829 829 830 832 833 834 835 835 836 837 838 838 838 839 839 840 841 841 841 842 842 843 843 843 843 844 844 844 845
774 777 779 776 768 764 759 758 759 757 759 760 760 760 759 760 759 755 755 756 758 761 761 760 760 759 758 758 761 767 773 775 778 779 781 783 784 785 787 790 791 792 794 795 797 798 799 800 800 802 803 804 806 807 809 812 814 816 818 820 821 822 823 825 827 828 828 828 829 829 831 833 834 835 835 836 837 837 838 838 838 839 839 840 841 841 841 842 842 843 843 843 843 844 844 845 846
774 774 776 771 761 758 755 756 757 758 761 761 760 760 758 758 758 756 758 761 761 763 763 761 763 763 761 761 766 771 773 776 778 779 780 781 782 784 786 789 790 791 793 795 797 798 799 800 800 802 804 805 807 808 810 813 816 818 820 822 822 823 826 828 828 828 827 828 829 830 832 833 834 835 835 836 837 837 838 838 838 839 840 840 841 841 841 841 842 842 843 843 843 844 844 845 845
771 770 774 766 757 758 757 758 760 760 762 762 762 760 758 757 755 755 758 760 761 761 761 762 764 765 764 764 767 771 774 776 778 778 779 780 781 783 784 787 788 790 793 795 796 798 799 800 801 803 805 807 808 810 810 814 818 820 822 824 825 826 828 829 828 828 827 828 829 830 832 833 834 834 834 835 836 837 837 838 838 839 840 841 841 841 841 841 841 842 842 843 843 844 845 845 845
768 770 770 760 757 762 759 758 760 761 763 763 763 761 760 757 754 755 756 760 763 757 754 757 759 761 764 765 768 771 774 776 777 778 779 779 781 783 784 786 788 791 793 795 797 799 800 801 803 804 806 808 810 811 811 815 819 822 825 826 827 828 830 830 828 828 828 828 830 831 832 833 834 834 835 835 836 837 837 837 837 838 839 840 840 840 841 841 841 842 842 842 843 844 844 845 845
769 768 764 759 762 764 758 757 761 762 764 764 764 763 760 757 756 756 756 758 760 754 751 752 753 756 760 764 767 770 773 775 776 777 778 779 781 782 784 786 789 791 794 796 797 799 801 803 804 805 807 808 810 812 815 817 820 824 827 828 828 829 830 829 828 828 829 831 832 832 832 834 835 835 836 836 837 837 837 837 837 838 838 839 839 839 840 840 841 841 842 842 843 843 844 844 844
770 765 761 763 763 763 759 758 762 763 765 765 764 762 759 760 759 756 756 754 753 753 752 752 753 753 758 762 766 769 772 775 776 777 778 779 781 782 785 787 790 793 795 796 798 800 802 803 804 805 807 809 811 814 816 819 821 824 827 827 828 829 830 830 829 830 832 833 832 832 833 834 835 836 836 836 836 836 837 837 837 838 837 838 838 838 839 839 840 840 841 841 842 843 843 843 844
769 764 761 763 762 762 760 758 761 762 765 764 762 762 761 763 761 757 757 753 751 753 752 753 753 753 758 763 766 769 771 774 776 777 779 780 782 785 787 789 791 793 795 798 799 801 803 804 805 806 808 810 812 814 815 818 821 823 826 827 829 830 831 830 831 831 833 833 833 832 832 832 835 837 837 836 835 836 837 837 837 838 837 837 837 837 838 838 839 839 840 840 841 842 842 843 843
768 764 760 761 762 762 759 758 760 761 762 761 762 764 761 759 758 759 757 753 753 754 752 753 753 756 760 764 767 769 771 775 776 778 780 782 784 787 789 791 792 794 796 798 801 803 803 804 806 808 809 811 813 814 815 818 820 822 825 827 829 831 832 831 830 830 832 834 834 832 831 831 833 837 837 836 835 835 836 836 836 836 836 836 836 837 837 838 838 838 839 839 840 841 841 842 842
763 761 759 761 762 759 758 759 759 760 759 760 763 763 759 757 758 759 753 752 755 754 754 754 755 759 762 765 768 770 772 775 777 779 781 784 786 788 789 790 792 795 796 799 801 802 803 805 807 809 810 812 814 815 816 818 820 822 824 826 827 829 831 832 829 829 832 833 833 832 831 832 833 835 836 835 835 835 835 835 835 835 836 836 836 836 836 837 838 838 838 838 839 839 840 841 842
757 758 758 760 760 757 758 759 757 758 757 759 762 761 758 758 761 759 751 752 755 754 756 755 757 761 763 765 768 770 773 775 777 779 782 784 785 786 787 790 794 797 798 800 802 804 805 806 808 809 810 811 814 815 817 819 820 822 824 825 825 826 830 833 830 830 832 832 831 832 832 832 833 834 836 835 834 834 834 834 834 834 835 835 835 835 835 836 836 837 837 838 838 838 839 840 841
757 759 760 760 759 757 757 758 757 757 757 755 757 759 759 761 762 755 750 753 754 755 758 758 759 761 763 766 768 771 773 775 778 779 781 783 783 785 788 790 793 796 798 801 805 808 808 807 807 809 810 811 814 816 817 819 820 823 824 824 824 825 830 832 831 831 831 830 831 832 832 832 832 833 833 833 833 832 832 833 833 833 834 834 834 834 834 835 835 836 837 837 838 838 839 840 840
759 760 763 760 758 759 756 754 754 755 756 750 754 763 763 762 759 750 749 752 753 756 758 759 760 761 763 766 769 771 772 775 777 779 780 782 783 786 789 791 792 794 798 803 808 810 808 806 807 809 810 811 814 816 817 819 821 823 823 822 823 825 829 831 831 831 829 829 830 831 831 831 831 830 830 831 832 832 832 832 833 834 835 834 833 833 833 834 835 836 836 837 838 838 839 839 840
761 760 761 759 759 758 750 749 752 754 754 748 756 769 762 754 752 747 749 752 753 757 758 759 761 761 764 767 769 771 772 775 777 779 780 782 785 787 790 793 794 795 799 804 807 808 806 806 808 809 810 811 814 816 817 819 821 822 821 820 823 826 828 830 830 830 828 828 830 831 831 831 829 828 829 830 831 831 831 831 832 834 834 833 831 831 833 833 834 834 834 836 837 838 838 839 840
760 761 762 759 761 754 743 746 752 754 754 747 756 768 756 743 745 747 747 750 753 757 757 759 761 762 764 767 770 771 773 775 777 779 781 782 785 788 791 793 795 797 799 801 803 804 804 805 807 808 809 812 814 816 817 819 820 821 821 820 824 826 827 828 829 828 827 828 829 830 830 829 827 827 828 829 830 831 831 830 831 833 833 832 831 831 832 833 832 832 833 835 836 837 838 839 839
757 765 767 759 759 752 742 746 749 751 751 747 756 765 752 738 742 747 747 749 752 755 756 758 761 762 764 767 769 772 773 775 777 780 781 783 786 788 791 794 796 799 799 798 799 801 803 804 806 807 809 811 814 815 817 818 819 820 821 822 824 826 826 827 827 827 827 828 828 828 828 827 826 826 827 828 830 831 831 831 831 831 832 832 831 830 831 832 833 833 834 835 836 837 837 838 839
758 763 763 757 757 753 746 747 744 745 749 750 754 758 749 741 743 747 748 750 752 753 755 758 761 763 764 767 769 772 774 776 777 779 780 783 785 788 791 794 796 798 800 798 798 800 802 804 806 807 809 811 813 815 816 816 818 819 820 822 824 825 826 826 826 826 826 826 827 827 826 825 825 825 827 828 830 830 831 831 831 831 832 832 832 831 831 832 834 834 835 836 837 837 837 839 840
761 760 757 753 755 751 748 748 744 744 749 751 752 753 748 744 745 747 748 750 752 753 755 758 761 763 764 766 769 772 775 777 777 777 779 782 785 787 790 793 794 797 799 798 800 802 803 805 806 808 809 810 812 814 815 816 817 818 820 821 822 823 825 825 825 825 825 825 825 825 825 825 826 826 827 828 829 830 831 831 831 832 832 833 833 834 834 834 835 836 836 837 838 838 838 839 840
759 760 758 755 754 751 748 747 744 745 749 750 751 754 749 744 745 748 749 750 752 753 754 757 760 763 765 766 769 772 774 776 776 776 778 781 783 785 788 791 794 796 796 797 802 804 804 806 806 807 808 809 811 812 814 815 816 818 819 820 821 822 824 824 825 825 825 825 824 825 825 826 827 827 828 829 829 830 830 831 832 832 833 833 834 834 835 836 837 838 837 838 838 838 838 838 840
752 753 754 754 753 751 745 743 744 745 750 750 749 752 749 745 745 747 749 751 754 755 755 757 759 762 765 766 769 771 773 775 775 776 778 780 782 784 786 789 792 795 796 798 803 805 804 805 806 807 807 808 810 811 813 814 816 817 818 819 820 822 823 824 825 825 825 825 825 825 826 827 828 828 829 829 829 830 830 831 832 833 833 833 834 834 834 836 838 838 837 838 837 837 838 839 840
751 751 752 750 750 749 742 743 747 746 751 750 745 748 748 743 742 744 749 752 755 757 758 759 759 761 764 766 769 771 773 773 774 776 777 779 781 783 785 786 789 793 795 798 802 804 804 805 806 807 807 808 809 811 812 814 815 817 818 819 820 821 823 823 824 825 825 825 825 826 826 827 828 829 829 830 830 830 830 831 832 832 833 833 834 834 834 836 837 837 837 838 838 838 838 839 841
756 754 754 752 751 747 740 745 748 748 753 748 743 748 746 742 742 744 749 754 756 756 758 760 759 760 762 764 768 770 772 772 774 776 776 778 780 782 783 784 786 789 792 796 799 802 803 804 807 807 807 807 809 810 812 813 815 816 817 818 819 821 822 823 824 825 826 826 826 826 826 827 828 828 829 830 830 830 831 831 832 832 833 834 834 835 836 836 836 837 838 838 838 839 839 840 841
759 755 754 753 747 743 744 748 749 749 753 747 744 749 746 745 746 745 748 752 754 753 755 757 758 760 761 762 766 769 771 773 774 775 775 777 778 780 782 783 785 787 789 792 796 800 802 804 806 806 806 806 808 809 811 813 815 816 817 818 819 821 822 823 824 825 826 826 827 827 827 827 828 829 829 830 830 831 831 831 832 832 833 834 834 835 836 836 836 837 837 838 838 839 839 840 841
758 754 755 752 744 745 750 751 750 750 751 748 746 747 748 752 752 749 750 750 750 752 753 754 755 758 760 760 763 767 770 773 774 774 774 775 776 779 780 781 784 786 788 790 793 797 800 801 803 804 804 805 807 809 810 813 814 816 817 818 820 821 822 823 824 825 826 827 828 828 828 828 829 829 829 830 830 831 831 831 832 832 833 833 834 835 835 835 836 836 837 837 838 838 838 840 841
755 753 752 747 743 745 746 747 750 749 751 749 747 750 750 752 754 753 754 754 753 753 754 755 755 755 758 759 762 765 767 770 773 773 773 773 774 777 779 781 783 785 788 789 791 794 796 798 800 802 803 804 806 808 810 812 814 816 818 819 821 822 823 824 824 826 827 828 828 829 829 829 829 830 830 830 831 831 831 831 832 832 833 833 833 834 834 835 835 835 836 837 838 838 838 839 841
753 753 749 743 742 744 745 747 750 752 754 748 747 758 756 747 749 752 754 758 756 754 756 756 756 756 757 759 762 765 765 767 769 770 770 771 773 776 778 780 783 785 787 789 790 792 794 796 798 800 802 804 806 808 810 812 814 816 817 819 820 821 822 823 824 826 827 828 829 829 830 830 830 830 830 831 831 831 831 832 832 832 832 832 833 833 834 834 834 835 836 836 837 837 837 839 840
752 747 743 742 742 746 748 748 749 753 753 746 746 757 758 750 747 747 751 758 756 755 757 756 755 756 756 757 759 762 764 765 767 767 768 770 772 775 778 779 781 784 786 788 790 791 793 795 798 800 802 804 806 808 810 812 814 816 817 818 819 820 821 823 824 826 827 828 829 830 831 831 831 831 832 832 832 832 832 832 832 832 832 832 833 833 833 834 834 835 835 836 836 837 837 838 839
748 739 738 742 743 747 749 747 747 745 745 749 745 745 754 754 748 745 748 755 756 754 756 755 753 753 754 755 756 758 761 763 766 767 766 768 771 774 776 778 780 783 785 787 789 790 793 795 798 800 802 804 806 808 810 812 814 816 817 818 819 820 821 823 825 826 827 828 829 830 831 831 832 832 832 832 832 832 832 832 832 832 832 833 833 833 834 834 834 835 835 836 836 837 837 837 838
743 738 738 739 741 744 744 744 744 740 748 757 745 740 753 754 748 748 750 753 756 754 752 751 750 750 751 752 754 755 758 761 763 765 766 766 769 772 774 777 779 781 784 786 788 790 793 795 798 800 802 805 806 808 810 812 814 815 817 818 819 820 822 823 825 826 827 828 829 830 830 831 832 832 833 833 833 833 833 832 832 833 833 833 834 834 834 834 835 835 835 836 837 837 837 837 837
741 740 739 739 741 743 744 743 741 746 758 760 747 745 755 754 747 748 752 752 753 753 750 748 745 746 748 749 752 753 755 758 761 762 764 765 767 771 774 776 778 780 783 786 787 790 793 796 798 801 803 805 807 808 811 812 814 816 817 818 819 820 822 824 825 826 827 828 829 829 830 831 831 832 833 833 833 833 833 833 833 833 834 834 835 835 835 835 836 836 836 837 837 837 838 838 838
742 740 740 742 743 742 745 742 740 757 767 756 747 748 755 760 749 740 748 751 746 746 748 747 746 746 748 748 750 752 753 756 758 760 763 764 766 770 773 775 777 779 782 784 787 790 794 797 800 803 806 807 808 809 811 812 814 816 817 818 819 820 822 823 825 826 827 827 828 829 829 830 831 831 832 833 834 834 834 834 834 834 835 835 836 836 836 837 837 838 838 838 838 838 839 839 840
743 740 739 747 750 748 751 750 753 769 770 754 747 748 754 763 751 737 744 749 746 747 747 749 750 750 750 750 749 750 752 754 756 758 762 764 766 770 773 774 775 778 780 784 788 792 795 798 802 806 810 811 811 811 811 812 814 815 817 818 819 820 821 823 824 825 826 827 827 828 829 830 831 832 832 833 834 834 834 835 835 835 835 836 836 836 837 837 838 838 839 839 839 839 840 840 841
744 740 741 754 761 763 767 764 764 767 763 754 750 752 757 757 748 741 745 750 751 752 751 752 753 752 753 752 750 750 752 753 755 758 761 764 766 769 771 772 773 777 780 784 789 793 796 799 802 806 811 813 814 815 813 812 814 815 817 818 819 820 821 822 823 824 825 826 827 828 828 829 831 832 832 833 834 835 835 835 836 836 836 836 837 837 837 838 839 839 840 840 841 841 842 842 843
745 741 744 755 762 775 781 769 764 763 760 754 750 756 760 751 746 746 749 753 753 753 754 755 755 755 756 754 752 751 752 753 755 757 761 764 767 770 771 772 775 779 784 788 792 795 798 799 798 800 805 808 812 816 815 813 814 815 817 818 819 821 822 822 823 824 825 826 827 828 828 828 830 831 832 833 834 835 835 835 836 836 836 837 837 838 838 839 840 840 841 842 842 843 843 843 844
738 730 734 746 750 763 774 765 760 761 758 757 759 762 758 751 752 750 749 752 752 752 754 754 755 755 755 755 753 754 755 755 756 759 762 766 768 771 774 779 782 785 788 791 792 794 797 799 797 797 801 806 809 813 813 813 814 816 817 819 820 821 822 822 823 824 824 826 827 828 828 828 830 831 832 833 834 835 835 835 836 836 837 837 838 839 840 841 841 842 843 843 844 844 845 845 846
737 727 734 745 739 742 760 766 764 762 761 762 763 758 747 746 751 748 748 750 749 752 753 753 756 755 755 757 757 758 759 759 760 763 767 770 772 774 778 783 787 788 790 790 788 788 791 795 799 801 803 805 807 810 811 813 814 815 817 818 820 821 822 822 822 823 824 825 827 828 828 829 830 831 832 833 834 835 836 836 836 837 838 838 839 840 841 842 843 843 844 845 845 846 846 847 847
738 738 741 738 728 732 755 769 769 769 769 762 758 756 747 747 752 747 747 750 749 753 753 753 757 757 757 760 760 761 762 763 766 769 772 774 775 778 781 784 786 789 795 795 790 787 788 793 799 803 805 805 806 808 810 812 813 815 816 818 820 821 822 822 822 823 824 825 827 828 828 829 830 831 832 833 834 835 836 837 837 838 839 839 840 841 842 843 844 844 845 846 847 847 848 848 848
737 743 737 731 734 737 747 763 769 771 773 763 758 760 754 755 758 751 748 752 754 755 755 756 757 757 759 761 761 763 765 768 771 773 775 776 778 782 785 787 786 786 792 796 795 791 789 794 800 804 804 804 806 808 810 812 813 814 816 818 819 821 822 822 822 823 823 824 826 828 828 829 830 831 832 833 834 835 836 837 838 839 839 840 841 842 843 844 845 846 846 847 848 849 849 849 850
733 734 726 732 751 752 749 761 770 771 774 767 760 759 752 750 754 752 754 758 758 758 757 758 758 758 760 763 765 767 769 771 773 775 778 778 780 783 787 791 790 785 787 795 799 795 790 794 800 803 805 805 806 809 810 812 813 814 816 817 819 820 822 822 823 823 824 824 826 828 828 829 830 831 832 833 834 835 837 837 838 839 840 841 842 843 844 845 846 847 848 849 849 850 850 851 851
733 731 726 731 743 747 746 751 755 762 769 768 766 764 753 747 752 756 761 762 760 760 760 760 762 763 765 768 770 771 772 774 774 778 780 782 783 783 785 793 793 785 786 796 802 797 791 794 800 803 805 806 807 809 811 812 813 814 815 817 819 820 822 823 824 824 824 825 827 828 828 829 830 831 832 833 834 835 837 837 838 839 840 842 843 844 845 846 847 847 848 849 850 851 851 852 852
735 738 738 737 739 741 744 744 743 750 758 763 770 767 756 757 764 764 765 766 764 762 762 765 767 768 771 773 774 775 776 777 777 779 781 783 786 785 787 793 793 788 788 795 800 797 793 796 800 803 804 805 807 809 810 812 813 814 815 817 818 820 821 822 823 823 824 825 826 828 829 830 830 831 832 833 834 835 836 837 838 839 841 842 843 844 845 846 847 848 849 850 851 851 852 852 853
730 733 733 735 738 743 752 755 746 744 749 753 760 761 759 768 773 768 768 770 767 764 765 769 771 772 775 777 777 777 778 779 779 780 782 784 787 788 790 792 793 792 792 795 796 796 796 798 800 802 803 804 806 808 809 811 812 814 815 816 818 819 820 821 822 823 823 825 826 828 829 830 831 832 832 833 834 835 836 837 838 839 841 842 843 844 846 847 848 849 849 850 851 852 852 853 853